Theta_e
330 339 345 349 348 348 347 345 343 341 340 338 337 338 340 340 341 342 342 343 343 343 344 345 347 347 347 348 347 346 348 348 347 345 347 347 347 347 345 345 345 341 345
333 339 343 348 348 345 343 341 339 338 337 333 333 333 334 334 335 337 339 340 342 343 343 344 346 347 346 347 347 346 348 348 346 343 344 344 346 346 344 344 344 341 345
336 337 341 343 343 342 339 337 334 331 329 328 328 328 327 327 328 329 332 333 335 339 341 343 345 346 346 345 345 345 346 346 344 341 343 345 343 346 344 343 344 346 345
335 336 337 339 340 337 334 332 329 327 326 325 324 323 323 323 324 325 325 326 328 332 336 339 342 343 343 344 343 343 345 345 340 339 343 342 342 344 344 343 343 345 345
331 331 334 336 336 333 331 329 326 324 322 320 319 320 321 322 322 323 324 324 325 326 328 331 335 337 337 339 340 341 342 343 339 337 341 340 342 342 343 343 343 344 343
326 328 332 334 332 330 328 325 323 320 318 317 317 318 319 320 321 321 322 323 324 324 325 327 328 330 332 334 336 339 340 340 338 338 338 338 339 342 344 343 343 343 342
322 324 328 332 330 327 325 322 319 317 315 314 315 317 318 318 318 319 320 320 321 322 323 323 324 325 327 328 331 335 337 337 335 335 335 337 340 343 343 344 342 343 342
319 321 325 326 327 325 321 319 316 314 313 313 315 315 316 316 317 318 319 320 320 321 321 321 322 322 323 325 327 330 332 331 332 335 336 338 339 343 343 343 342 342 342
316 318 320 319 319 320 321 319 314 312 312 313 314 315 315 315 316 316 316 316 317 319 319 319 320 321 321 322 322 326 328 328 331 335 335 337 336 341 343 343 341 341 342
313 314 313 312 314 314 315 316 316 314 312 312 313 313 313 313 313 314 314 313 314 315 316 316 317 317 318 320 321 324 324 327 328 331 335 335 335 340 342 342 341 341 341
309 310 308 308 309 309 309 307 310 310 310 309 309 310 311 310 311 312 312 314 315 315 315 314 315 315 316 317 318 320 320 327 331 331 331 331 334 339 340 342 340 339 340
306 306 306 305 306 306 305 305 305 305 306 306 308 308 309 310 311 312 311 313 313 313 314 315 314 314 315 316 317 318 319 327 329 330 331 331 335 338 339 338 337 337 338
306 306 305 304 304 304 303 304 304 304 305 307 308 309 310 310 311 311 311 311 312 311 312 312 312 313 314 316 317 318 320 325 327 327 328 328 335 337 337 336 334 335 337
304 305 304 303 302 302 302 303 303 304 306 307 308 308 309 310 309 309 310 311 311 312 311 311 312 313 316 316 315 316 323 324 326 325 324 325 333 335 336 335 334 335 335
303 304 303 302 302 301 301 302 304 305 306 307 307 309 310 309 308 309 309 310 310 311 310 311 313 316 316 315 316 320 322 325 324 324 324 321 328 331 334 334 335 336 338
304 304 302 301 301 301 301 302 305 306 306 307 308 309 310 311 311 310 309 309 309 309 311 312 314 316 317 319 320 319 321 321 323 324 324 323 323 325 330 336 336 337 339
304 304 302 301 300 300 301 304 305 306 308 308 308 309 310 311 311 309 308 308 308 309 310 312 319 319 316 314 313 315 317 319 321 322 323 322 324 322 324 330 333 335 337
303 303 301 301 300 301 303 305 306 306 307 307 308 309 310 309 310 308 308 308 308 309 311 315 314 311 310 309 308 308 310 312 316 321 323 324 325 325 324 323 326 335 335
303 301 300 300 300 302 304 304 304 305 306 306 307 308 308 308 308 308 308 308 308 310 314 314 312 311 307 307 306 306 306 307 309 314 318 324 325 325 325 323 325 327 333
300 300 299 299 301 303 303 303 304 304 306 307 307 308 307 307 307 307 307 307 309 313 313 311 310 310 308 307 306 305 305 305 306 306 311 322 324 325 325 324 325 323 326
297 298 299 300 301 302 302 302 302 303 305 306 306 306 306 306 306 306 307 309 312 313 311 311 310 309 309 311 310 308 307 305 303 303 307 314 321 322 323 324 324 325 326
296 298 299 301 301 301 302 301 303 304 306 307 305 305 306 306 307 306 307 309 312 312 311 310 310 310 311 311 309 307 303 306 304 302 303 306 311 318 318 317 319 319 321
296 298 300 301 301 301 302 302 303 306 308 306 305 304 305 305 306 307 308 313 313 312 311 311 311 310 309 309 310 309 305 302 300 302 300 300 304 309 311 313 313 315 318
296 299 300 301 301 301 302 302 302 303 302 304 305 305 305 306 307 307 308 314 313 313 311 311 312 311 310 306 307 306 306 306 304 298 300 299 300 301 306 308 310 312 311
297 298 299 300 300 301 301 302 303 302 304 306 305 303 304 306 307 307 310 315 313 313 312 312 311 311 310 308 305 304 304 304 305 302 295 298 299 298 300 302 306 307 305
297 298 299 299 299 300 301 301 302 302 303 304 303 303 305 306 308 309 312 315 313 312 312 312 312 312 311 308 307 305 304 305 304 302 297 294 295 295 297 298 300 302 302
Wind_Speed
4 9 11 14 13 13 12 9 6 5 4 1 1 4 5 5 6 5 5 6 6 7 7 7 9 8 8 10 10 9 10 12 11 9 11 11 12 14 15 12 9 11 12
10 8 8 12 13 13 11 9 6 4 3 3 4 4 5 6 6 6 7 8 8 7 8 9 10 9 9 9 10 11 10 11 11 10 11 10 12 14 15 13 9 12 12
12 9 6 10 10 11 10 10 8 5 4 3 4 4 5 5 6 7 8 8 10 9 10 11 12 13 10 8 8 9 10 10 12 12 10 10 12 15 16 13 11 12 13
10 7 6 10 10 11 10 10 8 6 4 4 4 5 6 7 7 8 8 9 10 10 11 13 12 13 13 11 10 10 9 10 12 12 10 10 11 15 16 15 14 13 15
8 7 8 10 12 11 10 9 8 6 5 4 4 6 6 7 8 8 9 9 10 11 12 13 14 13 12 12 11 12 12 10 12 10 10 9 10 14 16 15 14 13 13
9 8 10 10 11 10 9 9 8 6 6 5 5 5 6 7 8 9 10 10 11 12 13 13 13 14 12 11 11 11 13 12 11 8 7 10 13 15 17 16 12 12 12
9 7 8 10 10 10 9 9 7 5 5 4 4 5 6 7 8 9 10 11 11 12 12 13 14 14 13 12 11 11 10 10 8 5 8 9 13 17 19 17 17 16 17
10 7 6 8 9 9 8 8 6 5 4 3 4 5 6 8 9 10 10 10 11 12 12 12 13 13 13 14 14 12 10 8 6 11 11 10 14 19 20 19 18 18 19
7 7 5 5 6 8 7 6 5 4 2 3 5 6 6 8 8 7 7 8 11 12 13 13 14 14 13 13 13 12 8 8 6 8 10 8 15 21 21 21 20 20 20
6 6 6 5 4 3 3 4 3 2 3 4 5 5 6 6 6 5 6 5 10 10 11 12 13 14 14 14 13 10 7 9 7 7 9 8 15 22 23 22 23 22 22
5 6 6 5 5 3 3 1 4 5 5 5 5 6 4 3 4 6 7 12 13 12 13 14 14 15 14 13 12 10 11 5 8 8 7 15 19 24 24 23 21 19 20
10 7 7 6 6 4 2 3 2 3 2 3 3 4 3 3 4 5 6 9 10 12 14 13 13 13 11 7 6 10 7 7 6 5 7 20 21 23 21 16 18 18 16
8 6 8 7 5 5 3 2 1 1 1 1 3 2 2 2 2 3 3 3 5 6 5 8 8 5 8 7 6 6 8 6 5 4 5 15 21 21 16 19 18 17 16
9 10 8 7 6 5 3 2 1 0 0 1 2 3 2 2 2 3 3 4 4 4 7 7 5 8 9 6 6 6 6 5 4 4 4 6 13 16 19 18 21 23 25
9 9 9 8 7 5 4 2 1 0 1 2 3 3 3 3 3 2 3 4 4 5 6 7 7 7 6 4 3 4 5 7 9 4 4 8 9 15 13 22 20 24 24
8 10 8 9 7 6 4 3 1 0 1 2 3 3 4 3 4 1 2 4 4 5 6 6 8 4 2 4 6 5 7 5 6 7 4 6 7 6 3 22 19 19 30
8 7 10 8 7 6 5 3 2 0 1 2 2 3 3 3 3 2 2 4 4 5 7 5 3 6 8 7 9 9 7 7 5 6 3 4 3 4 4 8 14 21 23
8 10 8 8 8 6 5 3 1 0 0 1 2 2 3 3 2 2 2 3 4 5 5 3 6 7 7 7 7 7 7 9 9 8 4 2 0 3 3 3 20 19 21
10 10 10 8 8 7 5 3 2 1 0 1 2 2 3 2 2 1 2 3 4 4 1 6 6 8 7 6 7 8 8 7 8 7 6 2 2 4 5 5 8 16 20
9 10 10 8 8 7 5 3 2 1 1 0 1 1 2 1 1 1 2 3 4 2 5 5 8 8 6 7 8 9 7 7 7 9 8 6 7 9 9 7 6 7 19
8 10 10 10 7 6 2 2 1 1 1 1 2 3 1 1 1 1 1 3 3 4 7 8 5 10 4 4 5 4 6 8 12 9 7 8 10 10 12 10 7 8 10
10 10 9 8 8 4 2 2 1 2 1 2 1 1 1 1 1 1 1 2 3 5 8 6 2 1 2 3 4 3 3 4 6 10 9 9 10 8 10 10 10 9 10
8 9 8 7 7 5 4 3 1 1 1 1 1 1 1 1 1 0 1 2 4 3 4 4 3 3 2 3 7 3 3 2 1 5 9 9 9 7 7 10 7 9 11
5 6 6 6 6 4 5 2 1 1 1 1 0 1 1 1 1 2 2 4 4 4 4 3 2 3 3 3 2 5 7 4 4 2 5 7 8 9 8 6 6 8 7
6 5 5 6 6 3 3 2 1 2 1 2 0 1 1 1 2 2 1 4 5 3 4 4 3 4 2 1 2 1 5 5 5 4 3 3 6 7 7 7 6 7 7
4 5 4 5 5 3 2 3 2 2 2 1 1 1 1 1 1 3 3 3 5 5 5 5 3 5 4 2 2 2 2 3 4 4 4 3 4 4 5 5 6 5 4
Wind_Direction
187 172 170 158 167 150 136 122 93 56 67 46 351 21 39 26 16 360 6 2 343 324 310 300 295 293 273 247 234 227 202 186 192 205 183 173 167 152 148 156 146 152 143
152 177 167 143 139 114 105 97 93 114 104 63 41 19 14 10 2 350 348 355 335 322 307 298 293 283 279 260 244 229 208 194 193 175 172 168 161 155 157 159 161 155 155
150 161 161 115 115 111 119 128 124 119 105 72 37 21 15 2 1 354 349 338 329 317 310 308 300 295 277 277 254 227 222 207 198 193 169 176 171 164 165 163 167 164 158
146 127 119 123 136 144 142 135 128 120 97 73 44 17 8 360 356 349 344 338 330 323 310 305 306 323 324 286 271 242 227 204 203 200 181 182 177 171 166 168 168 156 151
127 120 127 137 150 150 143 133 126 117 101 73 34 11 1 350 343 337 335 329 326 323 316 308 306 313 320 339 293 267 231 211 205 197 190 187 181 179 173 173 169 154 157
138 139 139 150 154 148 140 132 127 119 94 60 28 4 353 348 342 340 334 328 324 320 314 309 304 299 307 316 320 295 247 216 201 184 181 184 189 187 178 176 166 157 151
144 147 148 157 155 151 145 138 129 114 92 63 29 360 352 343 337 335 331 326 324 321 315 309 304 300 300 300 299 311 274 246 216 201 202 192 187 187 189 176 169 167 158
152 158 158 150 146 151 147 139 135 122 92 38 2 342 334 336 331 331 334 331 327 321 315 310 305 301 297 291 288 288 296 286 214 201 203 193 194 192 190 180 172 171 167
150 153 157 144 146 145 148 143 133 113 80 351 341 334 331 329 326 330 336 335 325 316 320 324 317 307 298 290 285 280 283 264 234 221 205 200 200 195 193 183 176 175 173
161 169 165 153 140 150 156 141 110 73 62 356 354 353 343 340 320 303 289 297 324 325 315 310 305 299 297 294 281 290 323 221 220 229 232 209 210 199 196 190 185 176 173
184 189 173 170 160 185 165 109 83 63 38 14 358 351 351 314 295 289 302 309 321 328 321 314 308 310 297 295 299 285 280 266 204 204 215 207 211 204 201 194 185 176 173
194 195 188 186 177 186 173 125 95 64 24 355 339 326 313 318 312 309 307 324 339 328 318 315 303 304 300 280 277 263 252 237 216 217 209 199 201 207 205 192 174 159 174
193 194 191 189 182 186 170 141 99 62 0 329 313 295 309 314 311 318 321 327 323 320 311 305 304 293 288 280 265 246 246 217 194 142 227 213 197 200 190 151 162 160 172
188 196 186 188 180 182 157 163 144 81 353 298 295 280 274 275 304 321 320 323 314 318 308 304 304 302 297 284 260 257 206 175 148 109 143 192 193 172 157 157 167 176 178
201 197 188 176 181 172 164 159 141 191 276 289 273 269 262 253 257 296 307 308 315 309 315 317 313 314 327 299 246 238 152 136 115 111 101 101 125 154 169 166 184 199 175
198 196 173 183 175 160 161 158 145 185 277 264 269 281 289 282 295 267 329 317 313 335 318 318 310 321 353 21 58 76 86 74 108 115 117 88 79 31 176 187 196 195 171
198 176 177 170 161 160 156 141 134 202 282 278 292 304 309 345 323 359 337 322 333 310 319 313 27 66 49 41 42 43 46 48 62 89 122 98 145 90 29 215 187 175 163
166 175 156 163 160 152 148 130 125 106 288 298 315 319 330 336 332 346 331 324 318 316 314 330 85 79 62 55 42 38 33 30 29 26 55 99 107 101 129 284 268 188 160
168 153 155 154 157 141 129 118 104 93 107 299 304 321 349 346 339 351 310 329 318 319 338 87 68 86 79 64 62 46 36 26 21 25 29 93 69 112 130 37 146 158 139
149 144 143 140 141 128 114 105 92 90 66 21 346 336 15 359 33 296 337 335 319 321 84 89 100 91 95 87 75 62 43 35 29 24 8 65 108 102 108 90 94 119 128
114 133 142 137 140 133 119 122 117 125 62 37 12 16 53 81 123 21 347 2 342 97 101 97 112 106 105 125 96 71 70 50 42 23 12 48 74 76 100 101 99 106 113
134 135 135 133 144 136 106 123 130 157 171 97 12 26 40 355 318 98 342 43 78 104 111 116 145 97 79 334 118 121 28 22 17 18 28 31 51 75 87 74 79 90 102
131 138 135 132 137 129 116 108 94 182 155 125 32 347 349 295 297 289 313 106 118 101 121 133 129 80 119 54 25 83 122 75 19 355 19 29 33 60 73 85 86 98 104
97 102 109 120 120 116 127 141 164 156 141 122 116 278 281 254 232 290 340 119 129 112 123 138 120 104 105 97 60 38 66 91 112 79 16 14 30 37 59 69 78 81 91
106 113 121 117 107 116 132 142 141 129 123 133 197 253 248 245 237 261 249 135 144 149 157 150 131 103 82 59 98 99 61 76 71 103 80 23 41 17 32 44 52 69 53
91 107 118 113 104 116 125 130 127 154 171 193 189 209 242 218 237 240 246 169 157 163 174 164 165 149 129 94 103 117 137 140 151 123 103 51 78 14 21 37 46 66 52